THOR ABLESTAR DEB, 19302

Orbit data source: Space-Track

THOR ABLESTAR DEB, 19302 is space debris in LEO originally from a launch on Thu, 29 Jun 1961 UTC launched from the Air Force Eastern Test Range (AFETR). Debris objects in space refer to the collection of defunct objects orbiting the Earth. Examples of debris include non-operational satellites, rocket bodies, and fragments generated from explosions, collisions, or faulty payload assembly.

Loading next visibility...
Identifier
19302, 1961-015MC
Orbit
LEO
Country
Flag of USUS
Related business
Manufacturer
Unknown
Mission
Spacecraft
Bus & Motor
Unknown
Mass
Unknown
Launch date (UTC)
1961-06-29 (64 years ago)
Launch vehicle
Unknown
Launch site
Air Force Eastern Test Range (AFETR)
Object type
Payload
Rocket body
Debris
Shape & HBR
Unknown shape, 0.1 m
Radar Cross Section
Small (<0.1 m²)

Expand to show TLE details & history
Last TLE update: 2 days ago

TLE from 2 days ago
0 THOR ABLESTAR DEB
1 19302U 61015MC  25292.93385752  .00002737  00000-0  15502-2 0  9994
2 19302  66.8452  52.8950 0053331 161.7287 198.5735 14.10807173920959
Epoch: 2025-10-19T22:24Z
TLE epoch observation values (Epoch: 2025-10-19T22:24:45.289Z)
Latitude
-0.00002°
Longitude
48.06288°
Altitude
895.309 km
Speed
7.386 km/s
True Right ascension
03h 31m 34s
True Declination
0° 00' 00"
Sunlit
Object was in full shadow at epoch
Visualization orbit readout
Latitude
Unknown
Longitude
Unknown
Altitude
Unknown
Speed
Unknown
Apparent Right ascension
Unknown
Apparent Declination
Unknown
Sunlit
N/A
Visualization observer readout
Local Sidereal Time
06:02:47
Azimuth
Unknown
Elevation
Unknown
Doppler factor
Unknown
Orbital elements
Apogee altitude
893.559 km
Perigee altitude
816.409 km
Semi-major axis
7,233.121 km
Eccentricity
0.00533
Inclination
66.8452°
RAAN
52.895°
Arg. of periapsis
161.7287°
True anomaly
198.38007°
Mean anomaly
198.5735°
Eccentric anomaly
198.47666°
Mean motion
3.52821 °/min
Orbital period
102.03 mins
BSTAR
0.0015502

Documentation

Showing up to 5 results
|